| time (UTC) | temp C | wind direction | speed KPH | gust KPH | rain 1hr cm | rain 24hr cm | rain mn cm | humidity % | barometer mb |
| 20260904170020 | 28 | 163 | 4.8 | 14.5 | 0.00 | 0.00 | 0.00 | 70 | 1012.4 |
| 20260904164519 | 28 | 114 | 6.4 | 9.7 | 0.00 | 0.00 | 0.00 | 70 | 1012.4 |
| 20260904163018 | 29 | 116 | 4.8 | 12.9 | 0.00 | 0.00 | 0.00 | 70 | 1012.5 |
| 20260904161515 | 28 | 90 | 6.4 | 14.5 | 0.00 | 0.00 | 0.00 | 71 | 1012.5 |
| 20260904160013 | 28 | 211 | 0.0 | 11.3 | 0.00 | 0.00 | 0.00 | 74 | 1012.4 |
| 20260904154511 | 27 | 95 | 4.8 | 11.3 | 0.00 | 0.00 | 0.00 | 74 | 1012.4 |
| 20260904153021 | 27 | 95 | 4.8 | 14.5 | 0.00 | 0.00 | 0.00 | 76 | 1012.3 |
| 20260904151510 | 27 | 163 | 4.8 | 11.3 | 0.00 | 0.00 | 0.00 | 78 | 1012.2 |
| 20260904150007 | 26 | 109 | 4.8 | 12.9 | 0.00 | 0.00 | 0.00 | 79 | 1012.5 |
| 20260904144506 | 26 | 126 | 3.2 | 8.0 | 0.00 | 0.00 | 0.00 | 82 | 1012.4 |
| 20260904143006 | 26 | 115 | 3.2 | 8.0 | 0.00 | 0.00 | 0.00 | 84 | 1012.2 |
| 20260904141503 | 25 | 193 | 3.2 | 9.7 | 0.00 | 0.00 | 0.00 | 85 | 1012.2 |
| 20260904140003 | 25 | 54 | 1.6 | 9.7 | 0.00 | 0.00 | 0.00 | 86 | 1012.1 |
| 20260904134619 | 25 | 101 | 3.2 | 8.0 | 0.00 | 0.00 | 0.00 | 87 | 1012.0 |
| 20260904133113 | 24 | 111 | 0.0 | 8.0 | 0.00 | 0.00 | 0.00 | 88 | 1011.9 |
| 20260904131613 | 24 | 104 | 3.2 | 8.0 | 0.00 | 0.00 | 0.00 | 88 | 1011.6 |
| 20260904130054 | 24 | 123 | 3.2 | 6.4 | 0.00 | 0.00 | 0.00 | 88 | 1011.4 |
| 20260904124553 | 24 | 92 | 3.2 | 6.4 | 0.00 | 0.00 | 0.00 | 88 | 1011.3 |
| 20260904123052 | 23 | 130 | 1.6 | 8.0 | 0.00 | 0.00 | 0.00 | 88 | 1011.0 |
| 20260904121551 | 23 | 98 | 3.2 | 8.0 | 0.00 | 0.00 | 0.00 | 87 | 1010.8 |
| 20260904120048 | 24 | 99 | 4.8 | 8.0 | 0.00 | 0.00 | 0.00 | 86 | 1010.7 |
| 20260904114547 | 24 | 118 | 0.0 | 4.8 | 0.00 | 0.00 | 0.00 | 86 | 1010.6 |
| 20260904113046 | 24 | 151 | 0.0 | 3.2 | 0.00 | 0.00 | 0.00 | 86 | 1010.5 |
| 20260904111545 | 24 | 96 | 1.6 | 4.8 | 0.00 | 0.00 | 0.00 | 85 | 1010.5 |
| 20260904110044 | 25 | 182 | 0.0 | 4.8 | 0.00 | 0.00 | 0.00 | 84 | 1010.4 |
| 20260904104543 | 25 | 198 | 0.0 | 6.4 | 0.00 | 0.00 | 0.00 | 84 | 1010.5 |
| 20260904103050 | 25 | 175 | 0.0 | 6.4 | 0.00 | 0.00 | 0.00 | 84 | 1010.4 |
| 20260904101542 | 25 | 203 | 1.6 | 8.0 | 0.00 | 0.00 | 0.00 | 84 | 1010.5 |
| 20260904100042 | 25 | 149 | 1.6 | 9.7 | 0.00 | 0.00 | 0.00 | 84 | 1010.4 |
| 20260904094544 | 25 | 189 | 0.0 | 6.4 | 0.00 | 0.00 | 0.00 | 85 | 1010.4 |
| 20260904093043 | 24 | 159 | 0.0 | 0.0 | 0.00 | 0.00 | 0.00 | 85 | 1010.3 |
| 20260904091542 | 24 | 172 | 0.0 | 6.4 | 0.00 | 0.00 | 0.00 | 85 | 1010.3 |
| 20260904090048 | 24 | 121 | 0.0 | 0.0 | 0.00 | 0.00 | 0.00 | 85 | 1010.4 |
| 20260904084539 | 24 | 121 | 0.0 | 3.2 | 0.00 | 0.00 | 0.00 | 85 | 1010.3 |
| 20260904083038 | 24 | 170 | 0.0 | 6.4 | 0.00 | 0.00 | 0.00 | 84 | 1010.3 |
| 20260904081539 | 25 | 131 | 0.0 | 1.6 | 0.00 | 0.00 | 0.00 | 83 | 1010.4 |
| 20260904080044 | 25 | 175 | 0.0 | 3.2 | 0.00 | 0.00 | 0.00 | 82 | 1010.6 |
| 20260904074532 | 25 | 160 | 1.6 | 8.0 | 0.00 | 0.00 | 0.00 | 82 | 1010.8 |
| 20260904073035 | 25 | 175 | 1.6 | 9.7 | 0.00 | 0.00 | 0.00 | 81 | 1010.9 |
| 20260904071529 | 25 | 120 | 1.6 | 6.4 | 0.00 | 0.00 | 0.00 | 81 | 1010.9 |
| 20260904070027 | 25 | 147 | 1.6 | 8.0 | 0.00 | 0.00 | 0.00 | 80 | 1010.9 |
| 20260904064526 | 26 | 151 | 1.6 | 9.7 | 0.00 | 0.00 | 0.00 | 79 | 1011.0 |
| 20260904063022 | 26 | 248 | 1.6 | 4.8 | 0.00 | 0.00 | 0.00 | 78 | 1011.1 |
| 20260904061524 | 26 | 332 | 1.6 | 12.9 | 0.00 | 0.00 | 0.00 | 76 | 1011.1 |
| 20260904060017 | 26 | 196 | 1.6 | 6.4 | 0.00 | 0.00 | 0.00 | 74 | 1011.1 |
| 20260904054514 | 26 | 133 | 3.2 | 11.3 | 0.00 | 0.00 | 0.00 | 73 | 1011.0 |
| 20260904053012 | 27 | 170 | 4.8 | 14.5 | 0.00 | 0.00 | 0.00 | 71 | 1010.8 |
| 20260904051524 | 27 | 146 | 3.2 | 11.3 | 0.00 | 0.00 | 0.00 | 68 | 1010.7 |
| 20260904050008 | 27 | 120 | 3.2 | 9.7 | 0.00 | 0.00 | 0.00 | 69 | 1010.6 |
| 20260904044508 | 27 | 102 | 1.6 | 8.0 | 0.00 | 0.00 | 0.00 | 68 | 1010.4 |
| 20260904043009 | 27 | 99 | 4.8 | 12.9 | 0.00 | 0.00 | 0.00 | 67 | 1010.3 |
| 20260904041510 | 28 | 106 | 6.4 | 14.5 | 0.00 | 0.00 | 0.00 | 66 | 1010.5 |
| 20260904040006 | 28 | 94 | 8.0 | 14.5 | 0.00 | 0.00 | 0.00 | 65 | 1010.2 |
| 20260904034506 | 28 | 103 | 8.0 | 20.9 | 0.00 | 0.00 | 0.00 | 64 | 1010.1 |
| 20260904033003 | 28 | 94 | 3.2 | 11.3 | 0.00 | 0.00 | 0.00 | 63 | 1010.1 |
| 20260904031503 | 28 | 124 | 6.4 | 12.9 | 0.00 | 0.00 | 0.00 | 63 | 1010.0 |
| 20260904030103 | 28 | 126 | 4.8 | 11.3 | 0.00 | 0.00 | 0.00 | 63 | 1009.9 |
| 20260904024502 | 28 | 129 | 8.0 | 17.7 | 0.00 | 0.00 | 0.00 | 63 | 1009.6 |
| 20260904023001 | 29 | 90 | 6.4 | 16.1 | 0.00 | 0.00 | 0.00 | 63 | 1009.4 |
| 20260904021500 | 29 | 83 | 9.7 | 19.3 | 0.00 | 0.00 | 0.00 | 62 | 1009.0 |
| 20260904020059 | 30 | 123 | 6.4 | 29.0 | 0.00 | 0.00 | 0.00 | 61 | 1008.9 |
| 20260904014621 | 30 | 109 | 8.0 | 19.3 | 0.00 | 0.00 | 0.00 | 58 | 1008.8 |
| 20260904013059 | 31 | 75 | 11.3 | 25.7 | 0.00 | 0.00 | 0.00 | 56 | 1008.5 |
| 20260904011607 | 32 | 83 | 4.8 | 16.1 | 0.00 | 0.00 | 0.00 | 52 | 1008.1 |
| 20260904010057 | 32 | 75 | 4.8 | 12.9 | 0.00 | 0.00 | 0.00 | 49 | 1007.9 |
| 20260904004556 | 33 | 132 | 8.0 | 17.7 | 0.00 | 0.00 | 0.00 | 48 | 1007.7 |
| 20260904003055 | 33 | 122 | 6.4 | 17.7 | 0.00 | 0.00 | 0.00 | 48 | 1007.6 |
| 20260904001555 | 33 | 78 | 8.0 | 25.7 | 0.00 | 0.00 | 0.00 | 48 | 1007.4 |
| 20260904000058 | 34 | 97 | 11.3 | 24.1 | 0.00 | 0.00 | 0.00 | 46 | 1007.0 |
| 20260903234553 | 35 | 104 | 4.8 | 17.7 | 0.00 | 0.00 | 0.00 | 42 | 1007.1 |
| 20260903233053 | 36 | 98 | 3.2 | 9.7 | 0.00 | 0.00 | 0.00 | 40 | 1007.0 |
| 20260903231604 | 36 | 78 | 4.8 | 12.9 | 0.00 | 0.00 | 0.00 | 39 | 1007.1 |
| 20260903230051 | 36 | 126 | 6.4 | 14.5 | 0.00 | 0.00 | 0.00 | 40 | 1007.0 |
| 20260903224550 | 36 | 141 | 4.8 | 16.1 | 0.00 | 0.00 | 0.00 | 40 | 1006.9 |
| 20260903223102 | 36 | 58 | 3.2 | 12.9 | 0.00 | 0.00 | 0.00 | 38 | 1007.0 |
| 20260903221549 | 37 | 158 | 4.8 | 12.9 | 0.00 | 0.00 | 0.00 | 38 | 1006.9 |
| 20260903214546 | 36 | 68 | 6.4 | 17.7 | 0.00 | 0.00 | 0.00 | 38 | 1007.1 |
| 20260903213045 | 37 | 83 | 6.4 | 17.7 | 0.00 | 0.00 | 0.00 | 38 | 1007.2 |
| 20260903211643 | 37 | 72 | 6.4 | 16.1 | 0.00 | 0.00 | 0.00 | 38 | 1007.3 |
| 20260903210041 | 35 | 101 | 4.8 | 12.9 | 0.00 | 0.00 | 0.00 | 40 | 1007.5 |
| 20260903204539 | 36 | 73 | 3.2 | 17.7 | 0.00 | 0.00 | 0.00 | 41 | 1007.6 |
| 20260903203038 | 37 | 118 | 6.4 | 14.5 | 0.00 | 0.00 | 0.00 | 39 | 1007.9 |
| 20260903201536 | 37 | 156 | 3.2 | 9.7 | 0.00 | 0.00 | 0.00 | 38 | 1008.0 |
| 20260903200043 | 37 | 229 | 4.8 | 9.7 | 0.00 | 0.00 | 0.00 | 36 | 1008.3 |
| 20260903194543 | 37 | 301 | 6.4 | 12.9 | 0.00 | 0.00 | 0.00 | 36 | 1008.4 |
| 20260903193029 | 37 | 211 | 4.8 | 11.3 | 0.00 | 0.00 | 0.00 | 37 | 1008.7 |
| 20260903191526 | 36 | 249 | 6.4 | 16.1 | 0.00 | 0.00 | 0.00 | 38 | 1008.9 |
| 20260903190024 | 36 | 284 | 3.2 | 9.7 | 0.00 | 0.00 | 0.00 | 39 | 1009.3 |
| 20260903184519 | 35 | 239 | 4.8 | 12.9 | 0.00 | 0.00 | 0.00 | 41 | 1009.6 |
| 20260903183031 | 35 | 207 | 9.7 | 17.7 | 0.00 | 0.00 | 0.00 | 39 | 1009.8 |
| 20260903181512 | 35 | 49 | 3.2 | 14.5 | 0.00 | 0.00 | 0.00 | 43 | 1010.0 |
| 20260903180008 | 33 | 186 | 3.2 | 16.1 | 0.00 | 0.00 | 0.00 | 44 | 1010.3 |
| 20260903174506 | 33 | 241 | 4.8 | 19.3 | 0.00 | 0.00 | 0.00 | 49 | 1010.5 |
| 20260903173002 | 33 | 208 | 6.4 | 16.1 | 0.00 | 0.00 | 0.00 | 48 | 1010.8 |
| 20260903171605 | 33 | 176 | 6.4 | 19.3 | 0.00 | 0.00 | 0.00 | 51 | 1011.0 |
| 20260903170057 | 32 | 166 | 4.8 | 17.7 | 0.00 | 0.00 | 0.00 | 52 | 1011.2 |